TimeEDT,TemperatureF,Dew PointF,Humidity,Sea Level PressureIn,VisibilityMPH,Wind Direction,Wind SpeedMPH,Gust SpeedMPH,PrecipitationIn,Events,Conditions,WindDirDegrees,DateUTC
12:54 AM,79.0,66.9,66,29.98,10.0,SW,3.5,-,N/A,,Partly Cloudy,230,2013-08-03 04:54:00
1:54 AM,75.9,68.0,76,29.99,10.0,SW,3.5,-,N/A,,Clear,220,2013-08-03 05:54:00
2:54 AM,77.0,71.1,82,29.98,10.0,SW,4.6,-,N/A,,Clear,230,2013-08-03 06:54:00
3:54 AM,78.1,71.1,79,29.97,10.0,SW,4.6,-,N/A,,Clear,230,2013-08-03 07:54:00
4:54 AM,75.0,69.1,82,29.96,7.0,Calm,Calm,-,N/A,,Clear,0,2013-08-03 08:54:00
5:54 AM,73.9,68.0,82,29.98,5.0,Calm,Calm,-,N/A,,Haze,0,2013-08-03 09:54:00
6:54 AM,75.0,69.1,82,29.99,7.0,SSW,3.5,-,N/A,,Clear,210,2013-08-03 10:54:00
7:54 AM,80.1,71.1,74,29.99,10.0,WSW,4.6,-,N/A,,Clear,240,2013-08-03 11:54:00
8:54 AM,82.0,69.1,65,29.99,10.0,SW,8.1,-,N/A,,Clear,230,2013-08-03 12:54:00
9:54 AM,84.0,71.1,65,29.99,10.0,SW,8.1,-,N/A,,Clear,230,2013-08-03 13:54:00
10:54 AM,87.1,70.0,57,29.98,10.0,WSW,6.9,-,N/A,,Clear,240,2013-08-03 14:54:00
11:54 AM,88.0,71.1,57,29.97,10.0,WSW,12.7,-,N/A,,Clear,240,2013-08-03 15:54:00
12:54 PM,88.0,71.1,57,29.95,10.0,SSW,10.4,-,N/A,,Scattered Clouds,210,2013-08-03 16:54:00
1:54 PM,87.1,70.0,57,29.93,10.0,SSW,9.2,-,N/A,,Mostly Cloudy,210,2013-08-03 17:54:00
2:38 PM,73.4,66.2,78,29.96,5.0,North,16.1,24.2,0.05,Rain,Rain,350,2013-08-03 18:38:00
2:54 PM,73.0,66.0,79,29.95,10.0,North,6.9,-,0.05,Rain,Light Rain,10,2013-08-03 18:54:00
3:09 PM,73.4,66.2,78,29.97,1.8,West,6.9,-,0.08,Rain,Rain,280,2013-08-03 19:09:00
3:24 PM,75.2,68.0,78,29.95,3.0,SW,15.0,23.0,0.18,Rain,Light Rain,230,2013-08-03 19:24:00
3:54 PM,75.9,68.0,76,29.92,8.0,WSW,6.9,-,0.19,Rain,Light Rain,240,2013-08-03 19:54:00
4:35 PM,75.2,68.0,78,29.94,1.8,WSW,15.0,-,0.12,Rain,Heavy Rain,250,2013-08-03 20:35:00
4:44 PM,77.0,68.0,74,29.93,3.0,West,8.1,-,0.13,Rain,Light Rain,260,2013-08-03 20:44:00
4:54 PM,79.0,69.1,72,29.93,10.0,SW,4.6,-,0.13,,Overcast,220,2013-08-03 20:54:00
5:54 PM,81.0,71.1,72,29.92,10.0,SW,8.1,-,N/A,,Partly Cloudy,230,2013-08-03 21:54:00
6:11 PM,82.4,71.6,70,29.92,10.0,SSW,9.2,-,N/A,,Partly Cloudy,210,2013-08-03 22:11:00
6:54 PM,82.9,72.0,69,29.91,10.0,SW,9.2,-,N/A,,Clear,220,2013-08-03 22:54:00
7:54 PM,79.0,69.1,72,29.91,10.0,SW,4.6,-,N/A,,Clear,220,2013-08-03 23:54:00
8:21 PM,78.8,69.8,74,29.91,10.0,Calm,Calm,-,N/A,,Partly Cloudy,0,2013-08-04 00:21:00
8:54 PM,78.1,70.0,76,29.93,10.0,Calm,Calm,-,N/A,,Partly Cloudy,0,2013-08-04 00:54:00
9:54 PM,78.1,70.0,76,29.94,10.0,SSW,3.5,-,N/A,,Partly Cloudy,210,2013-08-04 01:54:00
10:54 PM,77.0,69.1,76,29.94,10.0,SW,3.5,-,N/A,,Overcast,230,2013-08-04 02:54:00
11:54 PM,77.0,70.0,79,29.93,10.0,SSW,4.6,-,N/A,,Mostly Cloudy,210,2013-08-04 03:54:00